Wind_Speed
21 22 22 23 23 23 22 20 20 20 20 19 19 19 18 18 17 17 16 16 15 15 14 13 12 12 11 10 9 9 8 7 7 6 6 6 6 6 7 7 8 8 9 10 11 12 13 13 14
23 23 23 23 23 22 21 21 21 21 21 20 20 19 19 18 18 17 16 16 15 15 14 13 12 11 10 9 9 8 7 6 6 6 6 6 7 7 8 8 9 10 11 12 13 13 13 14 15
25 24 24 24 22 21 21 22 23 23 22 21 20 19 19 19 18 17 16 15 15 15 14 13 12 11 10 10 9 8 8 7 7 7 7 7 7 8 8 9 10 11 12 13 13 13 14 15 16
27 26 26 25 23 22 22 23 24 24 22 21 21 20 19 19 18 17 16 15 15 14 14 13 12 11 11 10 9 8 8 8 8 8 8 8 8 8 9 10 11 12 13 13 14 15 16 17 18
30 29 28 26 23 23 24 24 25 24 23 22 22 20 20 19 18 18 17 16 15 15 14 13 12 11 11 10 10 9 9 8 8 8 8 9 9 10 11 11 12 13 13 14 15 17 18 19 20
33 31 30 27 24 24 25 26 25 25 24 23 23 21 20 20 19 18 17 16 16 15 15 14 13 12 11 11 10 10 9 9 9 9 9 9 10 11 12 12 13 14 14 15 17 18 19 20 22
35 34 32 29 27 26 26 26 26 25 25 24 23 22 21 20 19 18 17 17 16 16 15 14 13 12 12 12 11 11 10 10 10 10 10 11 12 12 13 14 15 15 16 17 18 20 21 22 23
39 38 35 32 29 28 28 27 27 26 26 25 25 24 23 21 20 19 18 17 17 16 15 15 14 13 12 12 11 11 10 10 10 11 12 12 13 14 14 15 16 17 18 19 20 22 23 24 24
42 41 37 34 31 30 30 30 29 28 27 26 25 24 23 22 21 20 19 18 17 17 16 15 15 14 13 12 12 12 12 12 12 13 13 13 14 15 15 16 18 19 20 21 22 23 24 25 26
45 43 38 35 34 33 33 32 31 30 29 27 26 25 24 23 22 21 20 19 18 18 17 16 15 15 14 14 13 13 13 13 13 13 14 15 15 16 17 18 19 21 22 22 23 24 25 27 28
48 44 39 39 38 37 36 34 34 32 31 29 27 26 26 25 24 22 21 20 19 19 18 17 16 16 15 15 14 14 14 14 14 14 15 16 17 18 19 20 21 22 23 24 25 26 27 28 29
49 46 43 41 41 40 39 37 36 34 32 32 31 29 28 27 25 24 23 22 21 20 19 18 17 17 16 16 15 15 15 15 15 16 16 17 18 19 20 22 23 24 25 25 26 27 28 29 30
52 48 46 44 44 43 42 40 39 37 35 34 33 31 29 28 27 26 25 24 22 21 20 19 18 18 17 17 17 16 16 16 17 17 18 19 20 21 22 23 25 25 26 27 27 28 29 30 30
54 51 49 48 47 46 45 43 42 39 38 37 35 33 31 29 28 27 26 25 24 23 22 21 20 19 18 18 18 18 18 18 18 19 19 21 22 23 24 25 26 26 27 28 28 29 29 30 31
56 55 53 52 50 49 48 47 44 41 40 39 37 35 33 31 30 28 27 26 26 24 23 22 21 20 20 20 19 19 19 19 20 21 21 22 23 24 25 26 26 27 28 28 29 30 30 31 31
58 57 57 53 52 51 51 48 44 43 42 41 39 37 35 34 32 30 29 28 27 26 25 24 23 22 22 21 21 21 21 21 21 22 23 24 24 25 26 26 27 27 28 29 29 30 31 32 32
62 60 58 55 54 53 53 49 46 45 44 42 41 39 38 36 34 33 31 30 29 27 26 25 24 24 23 23 22 22 22 22 23 23 24 25 25 26 26 27 27 28 29 29 30 31 32 32 33
62 60 59 57 55 54 54 51 48 47 46 44 43 41 40 38 36 35 33 32 30 29 28 27 26 25 25 24 23 23 23 24 24 25 25 26 26 27 27 27 28 29 29 30 30 31 32 33 33
60 60 59 58 56 56 55 53 51 49 48 46 45 44 42 39 38 37 35 34 32 30 29 29 28 27 26 25 25 25 26 26 26 26 26 27 27 28 28 28 29 29 30 30 31 32 33 33 33
61 61 60 59 58 58 57 56 54 52 51 49 47 45 43 41 40 38 37 35 34 32 31 30 29 28 27 27 27 27 27 27 27 27 28 28 28 29 28 29 29 30 31 32 32 33 33 33 33
61 61 59 58 57 58 59 60 57 55 53 52 49 47 45 43 41 40 38 37 35 34 33 32 31 30 29 29 29 29 28 28 28 29 29 29 29 29 29 30 31 31 32 33 33 33 33 33 33
62 60 58 57 57 58 60 62 60 58 56 54 51 48 46 44 42 41 40 38 37 35 34 33 32 32 31 31 30 30 29 29 30 30 30 30 30 31 30 31 32 32 33 33 34 34 33 33 33
60 58 58 57 57 59 60 62 62 60 58 55 52 49 47 44 43 42 41 40 38 37 36 35 34 34 33 32 32 31 31 31 31 31 31 31 31 31 31 32 32 33 34 34 34 34 33 33 33
59 58 56 56 58 61 60 61 63 61 57 54 52 50 47 46 45 44 43 42 40 39 38 37 36 35 35 34 33 32 32 32 32 32 32 32 32 32 32 32 33 34 34 34 34 34 33 34 34
59 59 57 57 59 63 60 62 64 60 56 53 51 50 48 47 46 45 44 43 41 40 39 38 37 36 36 35 34 33 33 33 33 33 33 33 33 33 33 33 34 34 34 35 34 34 34 34 35
58 60 60 58 60 61 61 63 62 59 55 52 51 50 49 48 48 46 45 44 43 41 40 39 38 37 36 35 35 34 34 34 34 34 34 34 33 33 34 34 35 35 35 35 34 34 35 35 36
58 60 58 57 58 58 59 59 60 58 53 51 51 50 49 48 48 47 46 45 44 42 41 40 39 38 37 36 36 35 35 35 34 34 34 34 34 34 35 35 35 35 35 35 35 35 35 36 36
57 58 59 58 57 57 58 58 58 55 51 49 49 49 48 48 48 48 46 45 44 43 42 41 40 39 38 37 37 36 36 35 35 35 35 34 35 35 36 35 35 35 35 36 36 36 36 36 37
57 58 59 59 58 57 57 56 54 50 47 46 45 45 46 47 47 47 46 46 45 44 43 42 41 40 39 38 37 37 36 36 36 35 35 35 36 36 36 36 36 36 36 36 36 36 37 37 38
56 57 58 58 59 57 56 55 51 48 45 43 43 43 43 44 45 45 45 45 44 43 42 41 41 40 39 38 38 37 37 36 36 36 35 36 36 36 36 36 36 36 36 37 37 37 37 38 39
Wind_Direction
227 226 225 223 223 222 221 221 221 221 222 222 222 221 223 224 224 225 223 222 221 220 220 221 223 225 229 233 238 242 247 252 255 258 264 268 274 279 281 283 287 292 294 296 296 297 297 297 297
226 226 224 223 222 220 219 219 220 220 220 221 221 221 222 222 221 221 221 220 219 217 217 219 220 222 227 229 231 235 240 246 250 257 266 272 279 281 283 287 291 294 296 297 298 298 298 299 299
226 225 225 223 219 217 217 218 218 219 219 219 220 220 220 219 219 218 217 217 217 216 216 218 220 223 224 225 228 233 240 247 254 262 268 275 281 284 287 290 294 297 298 299 300 300 300 299 300
226 225 224 222 218 216 216 216 217 217 217 217 218 218 217 216 216 215 214 214 214 215 215 217 220 220 222 226 229 236 244 252 258 264 269 274 280 285 291 294 297 299 299 300 300 300 300 300 300
227 226 224 222 218 216 217 217 216 216 216 216 217 215 214 214 213 213 213 212 211 212 213 215 217 220 223 228 233 239 246 254 259 265 269 274 280 287 291 296 299 300 301 301 301 301 301 302 301
229 226 224 220 217 216 217 217 215 215 215 214 215 214 212 211 211 211 211 211 212 214 214 215 218 222 226 230 235 241 249 256 263 268 272 277 283 287 291 295 298 300 300 301 301 301 302 302 302
229 227 223 219 217 216 216 217 215 214 213 213 213 212 211 210 210 209 210 212 213 214 214 216 220 225 229 234 239 245 252 259 266 271 276 281 284 288 292 294 296 298 299 300 301 302 302 302 302
229 228 224 219 217 216 216 216 214 212 211 211 211 211 210 210 210 210 211 211 211 212 214 217 222 227 230 235 242 247 253 261 268 273 277 280 284 288 291 294 295 297 299 300 301 302 303 303 303
229 227 224 220 219 217 216 215 213 211 211 210 210 209 210 210 210 210 211 211 212 213 216 219 223 227 230 236 243 249 256 263 269 272 275 279 283 288 292 294 296 297 299 300 301 302 302 303 303
229 227 224 222 220 218 216 215 213 211 211 211 210 210 210 211 211 212 213 214 214 216 218 221 225 227 233 239 245 251 257 263 269 272 277 281 285 289 293 296 297 299 299 301 301 302 302 303 303
228 227 224 223 221 219 217 215 214 212 211 211 211 211 212 213 213 214 215 215 217 219 221 223 226 230 236 241 247 252 258 263 269 274 279 283 287 291 293 296 298 299 300 301 302 302 302 303 303
229 226 224 222 221 220 218 216 215 214 212 211 212 212 213 214 216 216 216 217 220 221 223 226 230 234 238 243 249 254 259 264 271 277 281 284 288 291 294 296 298 299 300 301 302 302 303 303 303
228 226 224 223 222 221 220 218 216 215 214 213 214 215 215 216 217 218 218 219 221 223 225 229 233 236 240 245 251 257 262 266 273 278 282 286 288 291 293 296 297 298 299 301 302 303 303 304 304
227 225 224 223 222 221 221 219 217 216 216 215 215 216 217 218 219 220 221 222 224 226 229 231 234 237 242 247 253 259 264 269 274 278 282 286 289 291 294 296 297 298 299 301 302 302 303 304 304
226 225 224 222 222 222 222 220 218 217 217 217 217 217 218 219 221 222 223 224 226 229 231 233 236 239 245 250 255 261 265 270 275 279 283 286 289 291 294 295 296 297 298 300 301 302 304 304 305
225 225 224 222 223 223 223 221 219 219 219 218 218 219 219 221 222 223 225 227 229 230 232 234 238 242 247 252 258 262 266 270 275 279 282 286 289 292 294 295 296 297 298 300 301 303 304 305 306
223 224 224 222 223 224 225 222 221 221 221 220 220 220 221 221 222 224 226 229 230 232 233 235 239 244 248 254 259 263 267 271 275 279 283 286 289 292 294 295 296 297 298 300 301 302 304 305 306
224 224 224 224 224 225 226 224 222 223 222 221 221 221 221 221 223 225 227 229 231 232 234 237 241 245 250 255 259 263 268 272 275 279 282 285 288 291 294 295 296 298 299 300 301 303 304 305 306
226 225 225 225 225 226 227 225 223 224 223 222 222 222 222 223 224 225 227 230 231 234 237 239 243 247 251 255 259 264 268 272 275 279 282 284 288 291 294 295 296 297 298 299 301 303 304 304 305
225 226 225 225 225 227 227 227 224 224 223 223 223 224 224 224 226 227 229 231 233 235 238 240 244 247 251 255 259 264 268 271 275 279 281 284 287 290 292 293 294 296 297 299 301 302 303 304 305
224 225 225 226 226 228 228 228 225 224 224 224 224 224 225 225 227 229 230 232 234 236 239 241 245 248 252 256 260 264 267 270 274 277 280 283 286 289 290 292 293 295 297 299 300 301 302 303 304
224 224 226 227 228 228 228 229 225 225 225 224 224 225 225 226 228 230 232 233 235 237 240 242 246 249 253 256 260 263 266 269 272 276 279 282 285 287 290 291 293 294 296 297 299 300 301 302 303
224 224 226 228 230 231 229 231 226 225 225 225 225 226 227 228 229 231 233 235 236 238 241 244 247 251 254 257 260 262 265 269 272 275 278 281 284 286 289 290 292 293 295 296 297 298 300 301 301
223 223 225 228 231 232 229 232 229 225 225 226 227 229 230 230 231 232 234 236 238 240 243 246 249 251 254 256 259 262 265 268 271 274 277 280 282 285 287 289 291 292 294 295 296 297 298 300 300
220 220 222 226 228 230 229 232 230 225 225 227 229 231 232 232 233 234 235 237 240 242 244 246 249 252 254 256 258 261 264 267 270 273 276 278 281 283 286 288 290 292 293 295 296 296 297 298 299
219 220 223 225 228 230 230 232 230 227 225 227 229 231 232 234 234 235 237 239 240 242 244 247 249 251 253 255 257 260 263 265 268 271 275 278 280 282 285 287 289 290 292 294 295 295 296 297 298
219 221 222 226 229 230 231 231 231 230 228 227 229 231 232 234 236 237 239 239 241 243 245 246 248 250 252 254 256 259 262 264 267 270 274 277 279 281 284 287 288 289 291 292 293 294 295 296 297
219 220 222 224 227 229 231 231 230 229 229 229 229 230 232 233 235 237 239 240 242 243 244 245 247 249 251 254 257 259 262 264 266 269 273 275 278 280 283 285 287 288 289 290 292 293 294 295 296
217 218 221 225 227 229 231 231 230 230 229 229 229 229 230 232 234 236 238 240 242 243 244 244 246 248 251 254 257 259 262 264 267 269 272 275 277 279 282 284 286 287 288 289 291 292 293 294 295
220 220 221 224 227 228 230 232 230 229 228 229 229 229 230 231 233 234 236 239 241 243 243 244 246 248 250 253 255 258 261 263 266 268 271 274 276 279 281 283 284 286 287 288 290 291 293 294 294
Height
5841 5842 5843 5844 5847 5849 5851 5854 5855 5857 5859 5860 5862 5863 5865 5867 5869 5872 5871 5871 5872 5873 5874 5876 5877 5878 5879 5879 5880 5880 5881 5881 5881 5881 5881 5881 5881 5881 5880 5879 5879 5878 5877 5876 5875 5874 5873 5871 5870
5837 5838 5840 5841 5843 5845 5849 5850 5852 5854 5855 5857 5859 5860 5862 5863 5865 5867 5867 5868 5870 5871 5872 5874 5875 5876 5877 5878 5878 5879 5879 5880 5880 5880 5880 5880 5879 5879 5879 5878 5877 5876 5875 5874 5873 5872 5870 5869 5868
5832 5834 5836 5837 5839 5843 5845 5847 5848 5850 5852 5854 5856 5857 5859 5861 5862 5864 5865 5866 5868 5869 5870 5872 5873 5874 5875 5876 5877 5877 5878 5878 5878 5878 5878 5878 5878 5877 5876 5876 5875 5874 5873 5871 5870 5869 5868 5866 5865
5828 5830 5832 5834 5837 5839 5841 5843 5844 5846 5849 5851 5853 5855 5856 5859 5860 5861 5862 5864 5865 5867 5868 5870 5871 5872 5873 5874 5875 5875 5876 5876 5877 5877 5876 5876 5876 5875 5874 5874 5873 5871 5870 5869 5868 5866 5865 5863 5862
5822 5825 5827 5830 5833 5835 5837 5838 5840 5843 5845 5847 5850 5852 5853 5855 5857 5858 5860 5861 5863 5864 5866 5867 5869 5870 5871 5872 5873 5874 5874 5874 5875 5875 5874 5874 5874 5873 5872 5871 5870 5869 5868 5866 5865 5864 5862 5860 5859
5817 5819 5823 5825 5829 5831 5832 5834 5836 5839 5841 5844 5846 5848 5850 5852 5854 5855 5857 5858 5860 5862 5863 5865 5866 5868 5869 5870 5871 5872 5872 5872 5872 5872 5872 5872 5871 5871 5870 5869 5868 5866 5865 5864 5862 5860 5859 5857 5855
5811 5813 5817 5820 5823 5826 5828 5829 5832 5835 5838 5840 5843 5845 5847 5849 5851 5853 5854 5856 5857 5859 5861 5863 5864 5865 5867 5868 5868 5869 5870 5870 5870 5870 5870 5869 5869 5868 5867 5866 5865 5863 5862 5861 5859 5857 5855 5853 5851
5803 5807 5810 5815 5818 5822 5823 5825 5828 5831 5834 5836 5839 5841 5843 5846 5848 5850 5851 5853 5855 5857 5858 5860 5861 5863 5864 5865 5866 5867 5867 5867 5867 5867 5867 5866 5866 5865 5864 5863 5862 5860 5859 5857 5855 5853 5851 5849 5847
5794 5799 5804 5810 5813 5816 5818 5820 5823 5826 5829 5832 5834 5837 5840 5842 5844 5847 5849 5850 5852 5854 5856 5857 5859 5860 5861 5862 5863 5864 5864 5864 5864 5864 5864 5863 5863 5862 5861 5860 5858 5857 5855 5853 5852 5850 5847 5845 5843
5785 5791 5799 5804 5807 5810 5812 5814 5817 5821 5824 5827 5830 5833 5836 5838 5841 5843 5845 5847 5849 5851 5853 5854 5856 5857 5858 5859 5860 5861 5861 5861 5861 5861 5861 5860 5859 5858 5857 5856 5855 5853 5851 5849 5847 5845 5843 5841 5838
5777 5784 5792 5795 5799 5802 5805 5808 5812 5815 5820 5823 5826 5829 5831 5834 5837 5839 5841 5844 5846 5847 5849 5851 5852 5854 5855 5856 5857 5858 5858 5858 5858 5858 5857 5857 5856 5855 5853 5852 5851 5849 5847 5845 5843 5840 5838 5836 5833
5768 5776 5782 5787 5790 5794 5798 5802 5806 5810 5815 5818 5820 5823 5826 5829 5832 5835 5837 5840 5842 5844 5846 5847 5849 5850 5851 5853 5853 5854 5854 5855 5855 5854 5854 5853 5852 5851 5850 5848 5846 5844 5842 5840 5838 5836 5833 5831 5828
5757 5766 5772 5777 5781 5786 5790 5795 5799 5804 5808 5811 5815 5818 5822 5825 5828 5830 5833 5835 5838 5840 5842 5844 5845 5846 5848 5849 5850 5850 5851 5851 5851 5850 5850 5849 5848 5847 5845 5844 5842 5840 5838 5835 5833 5831 5828 5825 5823
5748 5755 5761 5766 5772 5777 5782 5787 5792 5798 5801 5805 5809 5813 5817 5820 5823 5826 5828 5831 5833 5835 5837 5839 5841 5842 5844 5845 5845 5846 5846 5846 5846 5846 5845 5845 5843 5842 5841 5839 5837 5835 5833 5830 5828 5825 5823 5820 5817
5736 5743 5749 5756 5763 5769 5773 5778 5785 5791 5795 5799 5803 5807 5811 5814 5817 5821 5823 5826 5828 5831 5833 5835 5836 5838 5839 5840 5841 5842 5842 5842 5842 5841 5841 5840 5839 5837 5836 5834 5832 5830 5828 5825 5823 5820 5817 5815 5812
5723 5730 5737 5747 5753 5759 5764 5771 5779 5783 5787 5792 5796 5801 5805 5808 5812 5815 5818 5821 5823 5825 5828 5830 5832 5833 5834 5835 5836 5837 5837 5837 5837 5836 5836 5835 5833 5832 5830 5829 5827 5825 5822 5820 5818 5815 5812 5809 5806
5709 5718 5728 5738 5744 5749 5754 5764 5771 5774 5779 5784 5789 5794 5798 5802 5805 5809 5812 5815 5817 5820 5822 5825 5826 5828 5829 5830 5831 5832 5832 5832 5832 5831 5830 5829 5828 5827 5825 5823 5821 5819 5817 5814 5812 5809 5806 5803 5800
5701 5711 5719 5727 5735 5740 5745 5754 5761 5766 5771 5776 5781 5786 5790 5795 5799 5802 5805 5808 5811 5814 5816 5819 5821 5822 5824 5825 5826 5826 5827 5826 5826 5826 5825 5824 5823 5821 5819 5818 5816 5813 5811 5809 5806 5803 5800 5797 5794
5692 5699 5707 5716 5724 5729 5735 5743 5750 5756 5761 5767 5772 5778 5783 5788 5791 5795 5798 5801 5805 5808 5811 5813 5815 5816 5818 5819 5820 5821 5821 5821 5820 5820 5819 5818 5817 5815 5814 5812 5810 5807 5805 5803 5800 5797 5794 5791 5788
5678 5686 5695 5704 5711 5717 5723 5730 5739 5745 5752 5758 5764 5769 5775 5780 5783 5788 5791 5795 5798 5801 5804 5806 5808 5810 5812 5813 5814 5814 5814 5815 5814 5814 5813 5812 5810 5809 5807 5806 5804 5801 5799 5797 5794 5791 5788 5785 5782
5665 5676 5685 5693 5700 5705 5711 5718 5727 5734 5741 5748 5754 5761 5766 5772 5776 5780 5784 5788 5791 5794 5797 5800 5802 5804 5805 5806 5807 5808 5808 5808 5808 5807 5806 5805 5804 5803 5801 5799 5797 5795 5793 5790 5787 5785 5782 5779 5776
5655 5667 5675 5681 5687 5692 5699 5705 5716 5724 5730 5738 5746 5752 5758 5764 5768 5772 5776 5781 5784 5787 5790 5792 5794 5796 5798 5799 5800 5801 5802 5802 5801 5800 5800 5799 5797 5796 5794 5793 5791 5789 5786 5784 5781 5778 5775 5772 5769
5647 5657 5664 5670 5675 5680 5686 5692 5704 5712 5720 5729 5737 5744 5750 5755 5760 5764 5768 5772 5776 5779 5782 5784 5787 5789 5790 5792 5793 5794 5794 5794 5794 5793 5793 5792 5791 5789 5788 5786 5784 5782 5779 5777 5774 5771 5768 5766 5763
5636 5644 5651 5656 5660 5665 5676 5680 5690 5702 5713 5722 5729 5735 5741 5746 5751 5755 5759 5763 5767 5771 5774 5776 5779 5781 5782 5784 5785 5786 5787 5787 5786 5786 5785 5785 5784 5782 5781 5779 5777 5775 5772 5770 5767 5764 5762 5759 5756
5620 5630 5637 5641 5645 5653 5665 5667 5678 5695 5705 5713 5720 5726 5731 5736 5741 5746 5750 5755 5759 5762 5766 5768 5771 5773 5774 5776 5777 5778 5779 5779 5779 5778 5778 5777 5776 5775 5774 5772 5770 5768 5765 5763 5760 5757 5755 5752 5748
5609 5618 5626 5633 5638 5647 5652 5657 5672 5685 5695 5702 5709 5714 5720 5725 5731 5736 5741 5745 5750 5753 5757 5760 5762 5764 5766 5768 5769 5770 5770 5771 5771 5771 5770 5770 5769 5767 5766 5764 5762 5760 5758 5755 5753 5750 5747 5744 5741
5599 5606 5618 5625 5630 5636 5639 5651 5662 5673 5683 5691 5698 5704 5710 5715 5721 5726 5731 5736 5740 5744 5747 5751 5753 5755 5757 5759 5760 5761 5762 5763 5763 5763 5762 5762 5761 5760 5758 5756 5755 5752 5750 5748 5745 5742 5739 5736 5733
5590 5599 5605 5610 5617 5624 5631 5641 5652 5663 5673 5681 5688 5694 5700 5705 5710 5715 5721 5725 5730 5734 5737 5741 5744 5746 5748 5750 5751 5753 5754 5754 5754 5754 5754 5754 5753 5751 5750 5748 5747 5744 5742 5740 5737 5735 5732 5729 5725
5579 5586 5592 5601 5607 5616 5624 5635 5645 5655 5664 5671 5677 5683 5688 5694 5699 5705 5710 5715 5719 5723 5727 5731 5734 5737 5739 5741 5743 5744 5745 5746 5746 5746 5746 5745 5744 5743 5742 5740 5739 5736 5734 5732 5729 5727 5723 5720 5717
5569 5577 5584 5592 5599 5608 5616 5629 5635 5645 5653 5660 5666 5671 5677 5683 5688 5694 5699 5704 5709 5713 5717 5721 5724 5727 5730 5732 5734 5735 5736 5737 5737 5738 5738 5737 5736 5735 5734 5732 5730 5728 5726 5723 5721 5718 5715 5712 5708